Date,TemperatureHighF,TemperatureAvgF,TemperatureLowF,DewpointHighF,DewpointAvgF,DewpointLowF,HumidityHigh,HumidityAvg,HumidityLow,PressureMaxIn,PressureMinIn,WindSpeedMaxMPH,WindSpeedAvgMPH,GustSpeedMaxMPH,PrecipitationSumIn
2013-1-1,59.0,48.5,43.3,23.0,20.0,18.0,38,33,25,30.13,30.09,2,1,2,0.00
2013-1-2,53.2,49.3,41.4,24.0,22.0,20.0,42,35,30,30.12,30.09,1,0,2,0.00
2013-1-4,-200.0,0.0,200.0,-99.9,-99.9,-99.9,0,0,100,30.14,30.14,0,-999,0,0.00
2013-1-5,37.4,37.4,37.4,13.0,13.0,13.0,36,36,36,30.23,30.23,0,0,1,0.00
2013-1-6,54.7,48.6,42.5,36.0,25.0,14.0,50,41,32,30.06,29.88,3,2,5,0.00
2013-1-9,57.9,57.9,57.9,32.0,32.0,32.0,38,38,38,29.99,29.99,0,0,2,0.00
2013-1-10,50.9,50.9,50.9,27.0,27.0,27.0,39,39,39,29.82,29.82,9,9,10,0.00
2013-1-11,48.2,12.1,48.2,16.0,-70.9,-99.9,28,7,28,29.96,29.91,2,-749,5,0.00
2013-1-12,41.3,38.9,37.6,11.0,10.3,9.0,33,31,27,30.04,30.03,2,1,4,0.00
2013-1-13,54.9,50.8,44.3,14.0,10.2,7.0,29,20,16,30.07,29.96,1,0,7,0.00
2013-1-14,-200.0,0.0,200.0,-99.9,-99.9,-99.9,0,0,100,30.16,30.16,0,-999,0,0.00
2013-1-15,-200.0,0.0,200.0,-99.9,-99.9,-99.9,0,0,100,30.33,30.33,0,-999,0,0.00
2013-1-17,74.4,74.4,74.4,18.0,18.0,18.0,12,12,12,30.09,30.09,2,2,3,0.00
2013-1-18,51.4,25.7,51.4,17.0,-41.5,-99.9,25,12,25,30.07,30.06,0,-500,0,0.00
2013-1-19,65.4,64.7,64.0,24.0,24.0,24.0,22,22,21,30.03,30.03,0,0,1,0.00
2013-1-20,74.9,58.2,47.4,17.0,13.7,10.0,26,18,11,30.07,29.99,0,0,2,0.00
2013-1-22,74.2,37.1,74.2,18.0,-41.0,-99.9,12,6,12,30.02,29.95,0,-500,1,0.00
2013-1-23,64.7,32.3,64.7,36.0,-32.0,-99.9,34,17,34,29.97,29.95,0,-500,0,0.00
2013-1-24,72.3,69.7,66.1,45.0,43.7,42.0,47,40,34,30.07,30.00,1,1,4,0.00
2013-1-25,60.7,40.0,58.9,58.0,4.7,-99.9,94,60,87,30.07,29.92,1,-333,1,0.29
2013-1-26,62.7,61.6,60.5,59.0,59.0,59.0,94,90,86,29.80,29.79,6,4,6,0.00
2013-1-27,59.3,56.6,53.9,58.0,47.5,37.0,94,74,53,29.82,29.80,3,2,4,0.00
2013-1-28,-200.0,0.0,200.0,-99.9,-99.9,-99.9,0,0,100,29.88,29.87,0,-999,0,0.00
2013-1-30,54.6,54.6,54.6,38.0,38.0,38.0,53,53,53,30.13,30.13,0,0,1,0.00
2013-1-31,-200.0,0.0,200.0,-99.9,-99.9,-99.9,0,0,100,30.11,30.11,0,-999,0,0.00
2013-2-1,75.9,48.5,51.8,39.0,3.0,-99.9,61,30,22,30.08,30.00,1,-250,3,0.00
2013-2-2,53.4,53.4,53.4,37.0,37.0,37.0,55,55,55,30.09,30.09,0,0,0,0.00
2013-2-4,83.2,41.6,83.2,34.0,-33.0,-99.9,17,8,17,29.90,29.81,0,-500,4,0.00
2013-2-5,78.8,74.2,67.0,36.0,35.0,33.0,28,24,21,29.87,29.75,1,0,5,0.00
2013-2-6,61.0,61.0,61.0,41.0,41.0,41.0,49,49,49,29.75,29.75,3,3,3,0.00
2013-2-7,74.7,74.7,74.7,30.0,30.0,30.0,19,19,19,29.84,29.84,2,2,7,0.00
2013-2-9,55.3,47.9,40.5,36.0,35.5,35.0,84,66,47,29.87,29.76,1,0,2,0.00
2013-2-10,62.6,62.6,62.6,33.0,33.0,33.0,33,33,33,29.88,29.88,1,1,6,0.00
2013-2-12,54.7,54.7,54.7,19.0,19.0,19.0,25,25,25,30.23,30.23,0,0,2,0.00
2013-2-13,64.6,53.8,43.1,24.0,22.0,20.0,39,30,21,30.13,30.11,0,0,2,0.00
2013-2-14,79.4,67.7,55.9,28.0,25.0,22.0,35,24,12,30.08,29.97,4,2,6,0.00
2013-2-17,62.0,62.0,62.0,37.0,37.0,37.0,40,40,40,29.79,29.79,3,3,8,0.00
2013-2-18,75.1,47.1,54.7,43.0,3.3,-99.9,65,34,17,29.85,29.75,4,-248,6,0.00
2013-2-19,58.5,56.7,54.8,42.0,38.0,34.0,63,52,40,29.74,29.70,1,1,9,0.00
2013-2-21,63.9,36.1,44.5,29.0,-15.3,-99.9,47,25,27,29.96,29.83,1,-333,5,0.00
2013-2-22,67.5,61.5,55.6,26.0,23.5,21.0,32,24,17,30.07,29.98,2,1,3,0.00
2013-2-23,64.5,62.4,61.1,36.0,34.0,30.0,39,35,27,29.88,29.76,4,2,10,0.00
2013-2-26,60.5,60.5,60.5,15.0,15.0,15.0,17,17,17,29.95,29.95,0,0,1,0.00
2013-2-27,70.9,66.6,58.2,15.0,13.7,12.0,18,13,10,30.19,30.15,2,1,6,0.00
2013-2-28,81.2,53.8,80.2,14.0,-26.3,-99.9,8,5,6,30.22,30.14,3,-332,3,0.00
2013-3-3,66.5,33.2,66.5,36.0,-32.0,-99.9,33,16,33,29.83,29.75,3,-498,11,0.00
2013-3-4,78.1,72.0,60.4,44.0,44.0,44.0,55,38,30,29.86,29.82,0,0,11,0.00
2013-3-6,61.5,61.5,61.5,40.0,40.0,40.0,45,45,45,29.78,29.78,0,0,6,0.00
2013-3-7,64.0,42.5,63.4,45.0,-3.3,-99.9,52,34,50,29.79,29.73,1,-332,8,0.00
2013-3-8,53.1,53.1,53.1,36.0,36.0,36.0,53,53,53,29.74,29.74,0,0,6,0.00
2013-3-9,44.8,44.8,44.8,38.0,38.0,38.0,78,78,78,29.85,29.85,0,0,1,0.00
2013-3-11,66.9,60.6,52.4,26.0,23.4,18.0,26,24,21,30.06,30.04,3,1,4,0.00
2013-3-12,71.7,71.7,71.7,36.0,36.0,36.0,27,27,27,29.91,29.91,0,0,1,0.00
2013-3-13,97.2,64.4,95.9,31.0,-13.3,-99.9,10,6,9,29.94,29.89,3,-331,5,0.00
2013-3-16,91.4,45.7,91.4,32.0,-34.0,-99.9,12,6,12,29.64,29.63,10,-494,14,0.00
2013-3-17,88.4,44.2,88.4,44.0,-28.0,-99.9,21,10,21,29.69,29.66,1,-499,9,0.00
2013-3-18,69.2,69.2,69.2,45.0,45.0,45.0,42,42,42,29.71,29.71,5,5,9,0.00
2013-3-20,69.6,34.8,69.6,48.0,-26.0,-99.9,47,24,47,29.82,29.68,2,-498,15,0.00
2013-3-21,81.9,75.9,70.0,47.0,46.0,45.0,41,35,29,29.69,29.55,4,2,13,0.00
2013-3-22,82.2,76.1,64.1,48.0,31.7,22.0,56,26,11,29.66,29.55,3,2,8,0.00
2013-3-23,61.3,61.3,61.3,39.0,39.0,39.0,44,44,44,29.73,29.73,0,0,3,0.00
2013-3-24,82.2,82.2,82.2,15.0,15.0,15.0,8,8,8,29.84,29.84,0,0,2,0.00
2013-3-25,78.2,68.9,59.7,23.0,22.5,22.0,24,18,12,29.80,29.72,4,2,6,0.00
2013-3-26,89.8,83.4,62.5,44.0,30.8,26.0,52,19,10,29.71,29.65,4,2,6,0.00
2013-3-27,-200.0,0.0,200.0,-99.9,-99.9,-99.9,0,0,100,29.71,29.71,0,-999,0,0.00
2013-3-28,84.2,84.2,84.2,38.0,38.0,38.0,19,19,19,29.79,29.79,0,0,4,0.00
2013-3-29,84.7,78.1,69.5,47.0,46.5,45.0,45,34,25,29.92,29.85,2,1,6,0.00
2013-3-30,90.4,45.2,90.4,43.0,-28.5,-99.9,19,10,19,29.83,29.81,1,-499,6,0.00
2013-3-31,70.9,70.9,70.9,44.0,44.0,44.0,38,38,38,29.85,29.85,2,2,9,0.00
2013-4-1,71.8,67.9,64.0,46.0,44.0,42.0,53,44,34,29.89,29.81,2,2,12,0.00
2013-4-2,71.7,71.7,71.7,47.0,47.0,47.0,41,41,41,29.82,29.82,2,2,5,0.00
2013-4-3,66.2,66.2,66.2,40.0,40.0,40.0,39,39,39,29.87,29.87,1,1,4,0.00
2013-4-4,74.3,74.3,74.3,45.0,45.0,45.0,35,35,35,29.84,29.84,2,2,5,0.00
2013-4-7,86.1,86.1,86.1,50.0,50.0,50.0,29,29,29,29.56,29.56,1,1,7,0.00
2013-4-9,58.1,58.1,58.1,34.0,34.0,34.0,40,40,40,29.65,29.65,2,2,6,0.00
2013-4-10,89.1,89.1,89.1,10.0,10.0,10.0,5,5,5,29.79,29.79,2,2,6,0.00
2013-4-12,88.9,77.2,65.4,44.0,42.0,40.0,47,32,18,29.63,29.59,3,2,6,0.00
2013-4-13,91.5,91.5,91.5,39.0,39.0,39.0,16,16,16,29.53,29.53,3,3,8,0.00
2013-4-15,61.7,61.7,61.7,46.0,46.0,46.0,56,56,56,29.50,29.50,3,3,6,0.00
2013-4-16,57.8,57.8,57.8,36.0,36.0,36.0,45,45,45,29.59,29.59,3,3,12,0.00
2013-4-17,61.9,61.9,61.9,28.0,28.0,28.0,28,28,28,29.93,29.93,1,1,4,0.00
2013-4-18,67.7,67.7,67.7,15.0,15.0,15.0,13,13,13,30.14,30.14,1,1,3,0.00
2013-4-19,86.4,65.6,55.1,15.0,13.7,12.0,19,15,7,30.03,29.94,2,1,3,0.00
2013-4-20,95.0,79.9,64.9,28.0,26.5,25.0,22,16,9,29.79,29.72,1,0,5,0.00
2013-4-21,89.6,85.9,81.1,39.0,36.0,34.0,20,17,14,29.82,29.70,2,1,6,0.00
2013-4-22,91.3,65.3,72.0,44.0,17.4,-99.9,33,23,15,29.75,29.60,2,-166,10,0.00
2013-4-24,88.0,87.9,87.9,29.0,28.0,27.0,12,12,11,29.68,29.67,3,3,8,0.00
2013-4-25,76.8,68.0,63.5,47.0,46.3,46.0,54,47,34,29.78,29.65,4,2,11,0.00
2013-4-26,83.6,83.6,83.6,41.0,41.0,41.0,22,22,22,29.87,29.87,0,0,3,0.00
2013-4-27,101.4,101.4,101.4,7.0,7.0,7.0,3,3,3,29.75,29.75,3,3,6,0.00
2013-4-29,77.5,77.5,77.5,45.0,45.0,45.0,32,32,32,29.58,29.58,2,2,9,0.00
2013-4-30,93.6,62.4,93.6,47.0,-2.3,-99.9,20,13,19,29.52,29.48,3,-331,11,0.00
2013-5-1,95.7,95.2,94.3,3.0,2.7,2.0,3,3,3,29.80,29.80,7,3,11,0.00
2013-5-3,96.0,88.2,80.3,23.0,16.0,9.0,12,8,4,29.71,29.63,2,2,9,0.00
2013-5-4,89.9,84.4,78.9,32.0,28.0,24.0,18,14,9,29.56,29.45,3,2,11,0.00
2013-5-5,68.1,68.1,68.1,43.0,43.0,43.0,41,41,41,29.55,29.55,1,1,4,0.00
2013-5-6,78.3,72.5,61.9,51.0,50.0,49.0,62,46,37,29.80,29.72,4,3,12,0.00
2013-5-7,80.1,69.7,62.7,46.0,44.2,42.0,53,42,26,29.86,29.76,3,1,8,0.00
2013-5-8,75.8,71.2,63.8,50.0,47.3,45.0,55,43,35,29.89,29.80,4,3,14,0.00
2013-5-9,86.1,78.9,71.8,55.0,50.5,46.0,55,40,25,29.83,29.82,7,4,17,0.00
2013-5-10,-200.0,0.0,200.0,-99.9,-99.9,-99.9,0,0,100,29.86,29.86,0,-999,0,0.00
2013-5-12,99.4,91.2,80.8,40.0,38.3,36.0,23,16,11,29.87,29.73,4,2,8,0.00
2013-5-13,95.4,95.4,95.4,33.0,33.0,33.0,11,11,11,29.69,29.69,0,0,5,0.00
2013-5-16,92.5,80.1,72.2,53.0,50.0,47.0,46,37,21,29.64,29.60,4,2,12,0.00
2013-5-17,88.7,44.3,88.7,45.0,-27.5,-99.9,22,11,22,29.66,29.64,2,-498,9,0.00
2013-5-18,77.5,77.2,76.8,51.0,51.0,51.0,40,40,39,29.78,29.78,2,2,13,0.00
2013-5-19,84.9,84.9,84.9,52.0,52.0,52.0,32,32,32,29.62,29.62,2,2,9,0.00
2013-5-20,97.6,85.9,77.0,51.0,41.3,24.0,41,26,7,29.74,29.68,2,1,7,0.00
2013-5-22,94.0,94.0,94.0,41.0,41.0,41.0,16,16,16,29.53,29.53,0,0,4,0.00
2013-5-23,79.2,79.2,79.2,45.0,45.0,45.0,30,30,30,29.64,29.64,0,0,6,0.00
2013-5-25,87.0,78.3,69.6,46.0,43.5,41.0,43,32,20,29.68,29.66,2,2,9,0.00
2013-5-26,87.0,77.2,67.4,47.0,42.0,37.0,49,33,17,29.76,29.69,6,4,12,0.00
2013-5-29,89.2,77.6,71.6,55.0,53.0,49.0,56,45,25,29.51,29.44,3,2,8,0.00
2013-5-30,96.4,48.2,96.4,53.0,-23.5,-99.9,23,12,23,29.61,29.55,2,-498,5,0.00
2013-5-31,81.0,81.0,81.0,56.0,56.0,56.0,43,43,43,29.70,29.70,1,1,2,0.00
2013-6-1,103.4,103.4,103.4,34.0,34.0,34.0,9,9,9,29.49,29.49,0,0,1,0.00
2013-6-2,82.6,82.6,82.6,57.0,57.0,57.0,41,41,41,29.51,29.51,3,3,7,0.00
2013-6-4,96.1,85.9,78.5,53.0,51.7,49.0,42,32,20,29.65,29.57,2,2,12,0.00
2013-6-5,73.7,73.7,73.7,54.0,54.0,54.0,51,51,51,29.64,29.64,2,2,4,0.00
2013-6-6,82.9,80.6,78.3,54.0,51.5,49.0,37,36,36,29.59,29.55,3,2,12,0.00
2013-6-7,109.0,98.0,87.0,53.0,51.5,50.0,31,22,14,29.58,29.46,10,5,14,0.00
2013-6-8,95.9,95.9,95.9,59.0,59.0,59.0,29,29,29,29.56,29.56,1,1,4,0.00
2013-6-10,79.4,79.4,79.4,46.0,46.0,46.0,31,31,31,29.64,29.64,2,2,9,0.00
2013-6-11,92.4,92.4,92.4,46.0,46.0,46.0,20,20,20,29.70,29.70,0,0,1,0.00
2013-6-12,104.7,77.9,81.2,56.0,27.9,-99.9,37,21,17,29.71,29.62,9,-152,11,0.00
2013-6-14,85.0,85.0,85.0,47.0,47.0,47.0,27,27,27,29.67,29.67,0,0,3,0.00
2013-6-15,96.8,85.9,78.0,48.0,41.2,26.0,35,24,8,29.67,29.58,6,2,10,0.00
2013-6-16,103.0,86.9,73.9,51.0,44.3,34.0,40,27,9,29.69,29.66,4,3,11,0.00
2013-6-19,83.4,80.0,78.2,52.0,45.3,42.0,34,29,27,29.52,29.51,3,2,14,0.00
2013-6-20,76.9,76.9,76.9,48.0,48.0,48.0,36,36,36,29.56,29.56,0,0,2,0.00
2013-6-21,98.9,83.1,77.3,46.0,36.5,-99.9,29,21,12,29.65,29.56,6,-40,13,0.00
2013-6-22,101.4,101.4,101.4,42.0,42.0,42.0,13,13,13,29.56,29.56,1,1,9,0.00
2013-6-23,98.9,58.2,75.6,54.0,1.0,-99.9,48,22,18,29.54,29.51,3,-332,13,0.00
2013-6-24,93.3,84.4,75.4,54.0,54.0,54.0,48,37,26,29.62,29.58,5,3,11,0.00
2013-6-25,75.6,75.6,75.6,56.0,56.0,56.0,50,50,50,29.64,29.64,2,2,7,0.00
2013-6-27,108.9,98.9,92.8,59.0,55.9,53.0,27,24,18,29.73,29.69,9,3,10,0.00
2013-6-28,116.2,99.3,88.0,57.0,47.6,-99.9,31,19,10,29.73,29.55,6,-30,18,0.00
2013-6-29,121.6,100.1,92.7,64.0,42.3,-99.9,36,17,7,29.60,29.45,7,-52,15,0.00
2013-6-30,112.3,93.5,81.7,65.0,51.6,-99.9,46,28,18,29.62,29.45,3,-52,8,0.00
2013-7-1,112.7,94.7,86.4,69.0,50.0,-99.9,56,26,13,29.67,29.54,13,-53,17,0.00
2013-7-2,110.3,93.1,91.4,71.0,48.8,-99.9,46,25,14,29.80,29.57,7,-54,16,0.00
2013-7-3,113.3,96.3,86.0,57.0,45.9,-99.9,37,20,13,29.63,29.45,7,-37,17,0.00
2013-7-4,110.7,94.7,87.2,68.0,51.0,-99.9,48,25,17,29.61,29.43,8,-30,14,0.00
2013-7-5,103.7,90.3,81.2,71.0,54.9,-99.9,61,33,23,29.61,29.48,5,-33,10,0.00
2013-7-6,109.9,88.3,80.7,61.0,49.7,-99.9,46,30,17,29.59,29.45,6,-49,11,0.00
2013-7-7,113.2,96.1,83.7,59.0,47.4,-99.9,40,22,10,29.58,29.47,7,-19,14,0.00
2013-7-8,115.6,96.8,86.1,54.0,38.9,-99.9,29,16,6,29.68,29.57,10,-34,13,0.00
2013-7-9,107.5,91.3,86.1,75.0,53.1,-99.9,67,34,13,29.87,29.66,9,-54,14,0.00
2013-7-10,99.0,87.8,83.1,76.0,64.7,-99.9,73,51,30,29.80,29.64,6,-30,17,0.00
2013-7-11,93.5,82.6,81.7,70.0,54.1,-99.9,65,42,35,29.80,29.66,5,-48,8,0.00
2013-7-12,105.6,85.8,80.7,65.0,50.6,-99.9,54,35,23,29.72,29.56,6,-67,14,0.00
2013-7-13,109.6,92.0,81.9,63.0,49.4,-99.9,42,26,16,29.71,29.56,6,-41,13,0.00
2013-7-14,112.2,94.4,86.3,59.0,47.9,-99.9,34,23,15,29.69,29.53,7,-42,14,0.00
2013-7-15,110.0,90.3,86.1,56.0,37.1,-99.9,30,18,12,29.60,29.48,12,-70,19,0.00
2013-7-16,103.8,89.0,85.4,46.0,29.3,-99.9,23,13,7,29.70,29.56,7,-62,14,0.00
2013-7-17,101.4,88.4,79.7,49.0,34.5,-99.9,26,16,8,29.80,29.68,10,-31,14,0.00
2013-7-18,111.5,96.7,84.3,50.0,36.5,27.0,24,13,6,29.73,29.56,6,2,12,0.00
2013-7-19,103.1,89.2,80.5,74.0,56.9,-99.9,61,37,22,29.73,29.55,5,-41,10,0.00
2013-7-20,98.6,84.1,83.2,75.0,61.5,-99.9,76,54,36,29.72,29.55,6,-58,12,0.00
2013-7-21,92.8,81.0,77.2,76.0,64.0,-99.9,84,62,53,29.74,29.60,10,-42,13,0.34
2013-7-22,98.9,83.4,77.1,71.0,59.0,-99.9,78,50,37,29.78,29.66,5,-53,12,0.00
2013-7-23,104.9,85.3,80.1,67.0,51.3,-99.9,55,37,25,29.78,29.61,9,-70,19,0.00
2013-7-24,109.8,89.7,83.8,65.0,50.4,-99.9,47,30,20,29.70,29.55,11,-62,16,0.00
2013-7-25,104.4,89.2,86.4,69.0,51.5,-99.9,42,31,26,29.78,29.63,7,-64,10,0.00
2013-7-26,101.1,85.7,80.4,73.0,55.7,-99.9,68,41,32,29.87,29.73,3,-52,7,0.03
2013-7-27,108.3,91.7,84.6,66.0,54.2,-99.9,47,31,21,29.76,29.55,6,-40,16,0.00
2013-7-28,100.9,85.9,85.1,58.0,46.1,-99.9,37,28,17,29.61,29.57,6,-47,11,0.00
2013-8-5,105.8,91.6,84.5,47.0,45.2,41.0,25,20,11,29.71,29.64,3,1,9,0.00
2013-8-6,106.5,86.9,79.0,53.0,36.4,-99.9,32,19,9,29.77,29.65,10,-50,15,0.00
2013-8-7,106.4,86.5,75.6,53.0,31.6,-99.9,36,17,6,29.78,29.66,7,-40,16,0.00
2013-8-8,103.1,85.4,81.4,47.0,30.2,-99.9,28,16,8,29.72,29.61,9,-54,14,0.00
2013-8-9,103.2,86.0,77.7,45.0,30.2,-99.9,27,15,6,29.68,29.61,9,-40,14,0.00
2013-8-10,102.7,84.6,74.9,51.0,36.7,-99.9,38,21,9,29.75,29.65,7,-43,13,0.00
2013-8-11,104.1,83.6,75.6,54.0,36.0,-99.9,40,23,8,29.75,29.61,6,-70,14,0.00
2013-8-12,108.2,87.5,78.7,55.0,38.6,-99.9,39,22,7,29.71,29.60,7,-61,14,0.00
2013-8-13,105.6,84.2,79.4,56.0,35.9,-99.9,39,23,10,29.76,29.62,7,-93,11,0.00
2013-8-14,108.9,86.2,75.6,60.0,36.7,-99.9,35,21,11,29.75,29.58,5,-86,8,0.00
2013-8-15,109.2,86.2,84.6,63.0,33.6,-99.9,33,19,15,29.75,29.60,7,-118,14,0.00
2013-8-16,113.8,87.7,88.4,58.0,32.5,-99.9,27,17,14,29.70,29.58,5,-126,13,0.00
2013-8-17,111.5,85.1,88.0,61.0,32.5,-99.9,33,20,16,29.72,29.53,5,-146,10,0.00
2013-8-18,109.5,82.6,82.8,63.0,31.5,-99.9,40,21,20,29.69,29.55,6,-165,10,0.00
2013-8-19,105.5,87.0,82.7,68.0,44.1,-99.9,46,27,22,29.72,29.59,5,-94,8,0.00
2013-8-20,112.6,89.8,85.4,60.0,39.9,-99.9,38,21,11,29.68,29.55,5,-82,12,0.00
2013-8-21,110.9,87.4,79.3,54.0,31.8,-99.9,36,17,12,29.70,29.58,6,-114,8,0.00
2013-8-22,108.5,89.7,87.7,69.0,44.2,-99.9,45,25,18,29.71,29.55,5,-88,20,0.00
2013-8-23,102.3,86.1,84.8,68.0,46.7,-99.9,45,30,19,29.68,29.52,6,-82,10,0.00
2013-8-24,97.9,80.5,77.6,75.0,51.3,-99.9,70,44,19,29.75,29.59,8,-72,17,0.00
2013-8-25,96.1,75.8,73.9,76.0,58.2,-99.9,80,63,45,29.82,29.70,7,-61,14,0.02
2013-8-26,85.2,76.0,75.5,74.0,64.5,-99.9,92,74,63,29.85,29.70,3,-41,5,0.07
2013-8-27,102.2,83.0,75.0,72.0,55.2,-99.9,84,48,32,29.71,29.56,4,-74,7,0.00
2013-8-28,109.8,84.8,84.2,67.0,41.6,-99.9,49,28,21,29.69,29.56,5,-128,10,0.00
2013-8-29,99.3,84.4,83.6,75.0,62.1,-99.9,71,54,36,29.85,29.72,6,-61,13,0.00
2013-8-30,97.7,81.3,82.2,77.0,58.9,-99.9,82,57,44,29.87,29.75,6,-83,8,0.00
2013-8-31,103.4,82.9,84.7,72.0,50.4,-99.9,61,42,33,29.78,29.63,10,-113,14,0.00
2013-9-1,107.0,85.2,85.0,69.0,48.3,-99.9,58,35,24,29.72,29.58,7,-92,11,0.00
2013-9-2,107.5,81.0,85.0,65.0,37.0,-99.9,50,29,20,29.70,29.58,5,-157,12,0.00
2013-9-3,106.3,87.8,84.5,68.0,53.3,-99.9,47,35,25,29.72,29.61,10,-61,15,0.00
2013-9-4,106.2,84.4,84.1,71.0,51.2,-99.9,52,38,23,29.78,29.66,10,-83,23,0.00
2013-9-5,109.2,88.7,82.4,64.0,51.2,-99.9,50,32,21,29.72,29.63,4,-62,12,0.00
2013-9-6,110.4,85.5,86.0,63.0,42.2,-99.9,39,27,19,29.70,29.59,10,-103,18,0.00
2013-9-7,96.7,80.3,80.4,72.0,52.0,-99.9,64,46,39,29.78,29.67,6,-92,13,0.00
2013-9-8,103.9,85.7,77.0,69.0,52.9,-99.9,69,39,22,29.68,29.54,12,-62,13,0.00
2013-9-9,104.0,84.5,78.3,67.0,45.7,-99.9,60,31,19,29.63,29.47,7,-72,12,0.00
2013-9-10,99.4,75.8,76.8,71.0,37.4,-99.9,80,36,24,29.70,29.59,5,-134,15,0.00
2013-9-11,100.5,79.4,79.2,56.0,33.3,-99.9,39,24,18,29.77,29.65,6,-114,8,0.00
2013-9-12,104.7,80.7,77.4,55.0,28.5,-99.9,40,20,12,29.73,29.58,4,-125,9,0.00
2013-9-13,107.7,82.7,82.7,54.0,23.9,-99.9,31,15,9,29.62,29.43,6,-134,10,0.00
2013-9-14,109.6,83.2,79.9,53.0,25.3,-99.9,30,16,10,29.52,29.41,3,-145,8,0.00
2013-9-15,108.5,82.7,83.6,56.0,25.6,-99.9,28,16,13,29.56,29.48,7,-155,12,0.00
2013-9-16,110.6,83.3,82.2,52.0,24.5,-99.9,30,16,11,29.61,29.48,7,-155,14,0.00
2013-9-17,105.5,78.1,81.8,51.0,17.0,-99.9,26,14,9,29.55,29.43,5,-171,15,0.00
2013-9-18,100.7,75.1,77.1,55.0,19.4,-99.9,46,18,8,29.54,29.46,7,-151,12,0.00
2013-9-19,104.5,77.5,75.9,59.0,22.6,-99.9,49,21,8,29.60,29.50,4,-146,7,0.00
2013-9-20,102.2,75.5,76.0,59.0,29.6,-99.9,51,27,13,29.62,29.53,6,-144,12,0.00
2013-9-21,94.3,71.8,70.4,56.0,31.0,-99.9,59,31,16,29.65,29.49,10,-126,19,0.00
2013-9-22,90.0,70.9,68.2,52.0,33.6,-99.9,54,32,18,29.65,29.53,10,-93,18,0.00
2013-9-23,99.1,75.4,65.9,51.0,23.2,-99.9,48,20,9,29.74,29.65,4,-104,7,0.00
2013-9-24,97.5,76.9,72.9,44.0,22.3,-99.9,26,16,13,29.75,29.59,9,-114,11,0.00
2013-9-25,92.9,72.6,67.2,50.0,23.8,-99.9,53,21,13,29.60,29.40,12,-112,19,0.00
2013-9-26,81.7,65.4,65.4,49.0,27.8,-99.9,52,32,20,29.70,29.46,14,-102,19,0.00
2013-9-27,88.1,68.4,60.4,42.0,16.9,-99.9,46,19,8,29.87,29.71,7,-93,13,0.00
2013-9-28,92.5,70.1,61.9,34.0,11.7,-99.9,24,13,6,29.92,29.82,3,-103,6,0.00
2013-9-29,95.0,71.5,65.3,39.0,13.6,-99.9,29,14,8,29.91,29.77,4,-115,8,0.00
2013-9-30,96.4,73.3,67.8,43.0,18.3,-99.9,32,16,9,29.80,29.64,4,-115,8,0.00
2013-10-1,92.8,71.4,70.3,49.0,25.1,-99.9,34,23,17,29.76,29.64,6,-126,9,0.00
2013-10-2,95.1,71.5,67.4,59.0,30.8,-99.9,48,29,21,29.75,29.61,13,-123,14,0.00
2013-10-3,86.1,67.6,67.5,55.0,32.4,-99.9,58,36,25,29.70,29.55,13,-118,15,0.00
2013-10-4,84.4,67.4,68.6,54.0,4.4,-99.9,58,11,6,30.02,29.71,10,-104,15,0.00
2013-10-5,89.6,68.6,67.0,26.0,5.6,-99.9,20,11,5,30.11,29.97,8,-114,12,0.00
2013-10-6,93.8,69.6,62.2,38.0,7.7,-99.9,27,12,5,30.01,29.83,4,-114,6,0.00
2013-10-7,92.9,69.7,63.2,35.0,9.3,-99.9,23,12,6,29.85,29.68,4,-115,8,0.00
2013-10-8,89.8,68.0,63.7,51.0,19.4,-99.9,53,23,9,29.70,29.53,14,-122,20,0.00
2013-10-9,73.7,54.9,51.6,49.0,25.4,-99.9,82,46,34,29.64,29.51,16,-135,21,0.05
2013-10-10,75.7,55.2,48.7,47.0,22.2,-99.9,84,41,27,29.85,29.64,5,-146,8,0.00
2013-10-11,82.3,60.5,57.0,46.0,21.3,-99.9,64,32,22,29.90,29.77,4,-150,8,0.00
2013-10-12,87.5,64.3,60.2,50.0,20.3,-99.9,50,27,16,29.82,29.68,4,-145,11,0.00
2013-10-13,85.8,63.2,62.4,50.0,23.8,-99.9,57,32,18,29.84,29.70,7,-144,15,0.00
2013-10-14,87.9,65.9,61.7,50.0,18.3,-99.9,60,23,12,29.92,29.79,3,-124,8,0.00
2013-10-15,89.1,64.8,59.9,42.0,12.5,-99.9,41,18,11,29.90,29.76,6,-136,8,0.00
2013-10-16,88.0,62.8,58.2,36.0,9.2,-99.9,37,17,8,29.99,29.85,3,-136,7,0.00
2013-10-17,88.5,64.3,57.5,39.0,10.9,-99.9,34,17,9,29.91,29.74,3,-127,6,0.00
2013-10-18,94.1,67.6,63.5,36.0,9.2,-99.9,29,14,7,29.87,29.77,3,-135,5,0.00
2013-10-19,95.2,67.8,60.4,36.0,8.1,-99.9,28,13,6,29.90,29.77,3,-135,7,0.00
2013-10-20,94.8,70.6,62.8,43.0,12.5,-99.9,32,14,6,29.81,29.66,4,-125,9,0.00
2013-10-21,90.6,67.0,66.5,41.0,13.7,-99.9,33,17,11,29.82,29.73,6,-135,9,0.00
2013-10-22,93.6,67.7,62.4,40.0,10.9,-99.9,28,15,9,29.85,29.73,4,-135,7,0.00
2013-10-23,94.1,67.0,64.2,53.0,16.6,-99.9,61,22,9,29.75,29.65,7,-145,13,0.00
2013-10-24,89.9,69.3,62.4,53.0,36.6,-99.9,70,39,20,29.83,29.71,7,-82,12,0.00
2013-10-25,89.9,65.2,66.4,50.0,18.3,-99.9,53,24,13,29.90,29.82,5,-156,10,0.00
2013-10-26,96.9,68.0,65.7,43.0,13.6,-99.9,30,17,10,29.93,29.82,4,-155,8,0.00
2013-10-27,93.2,68.0,65.7,47.0,17.0,-99.9,49,20,11,29.82,29.53,9,-144,14,0.00
2013-10-28,75.2,57.6,59.2,47.0,20.0,-99.9,57,34,27,29.72,29.51,13,-153,20,0.00
2013-10-29,73.9,53.2,52.7,45.0,17.6,-99.9,71,38,27,29.82,29.72,7,-167,18,0.00
2013-10-30,79.3,56.1,56.3,46.0,17.2,-99.9,63,33,19,29.93,29.82,6,-151,11,0.00
2013-10-31,83.6,56.6,52.5,41.0,10.3,-99.9,43,24,13,30.01,29.88,3,-161,7,0.00
2013-11-1,86.1,60.1,55.0,43.0,13.6,-99.9,49,23,13,30.02,29.86,4,-145,5,0.00
2013-11-2,85.2,60.3,56.8,40.0,12.6,-99.9,43,22,14,29.91,29.68,5,-156,10,0.00
2013-11-3,84.6,60.0,55.8,50.0,19.5,-99.9,62,31,16,29.70,29.58,8,-148,12,0.00
2013-11-4,73.3,56.1,59.4,49.0,23.4,-99.9,64,42,35,29.78,29.57,12,-155,20,0.00
2013-11-5,74.5,55.4,53.5,46.0,0.9,-99.9,61,17,8,30.08,29.79,12,-147,15,0.00
2013-11-6,82.1,55.8,48.3,34.0,0.2,-99.9,31,15,6,30.18,30.06,2,-149,4,0.00
2013-11-7,84.0,58.1,52.3,37.0,4.1,-99.9,33,16,8,30.06,29.90,4,-145,5,0.00
2013-11-8,84.8,58.2,56.8,34.0,1.1,-99.9,31,14,8,29.91,29.79,5,-170,6,0.00
2013-11-9,82.5,57.2,56.1,40.0,6.4,-99.9,41,18,11,29.95,29.84,3,-156,4,0.00
2013-11-10,88.4,57.8,58.2,42.0,6.1,-99.9,40,18,9,29.99,29.90,2,-166,4,0.00
2013-11-11,92.7,63.1,58.2,46.0,11.7,-99.9,33,19,14,29.97,29.87,3,-166,4,0.00
2013-11-12,88.7,62.9,62.4,53.0,13.6,-99.9,37,20,14,30.02,29.92,1,-166,3,0.00
2013-11-13,90.5,62.1,63.0,45.0,7.8,-99.9,34,17,12,29.95,29.80,3,-189,5,0.00
2013-11-14,88.4,61.2,62.0,39.0,8.2,-99.9,32,18,10,29.85,29.59,5,-168,8,0.00
2013-11-15,75.3,56.7,60.5,49.0,20.1,-99.9,55,36,26,29.59,29.45,9,-164,16,0.00
2013-11-16,71.9,54.6,60.0,49.0,20.9,-99.9,56,40,40,29.75,29.54,10,-164,16,0.00
2013-11-17,73.2,53.0,55.0,47.0,20.6,-99.9,68,43,34,29.96,29.75,6,-166,8,0.00
2013-11-18,78.4,56.3,53.1,51.0,22.4,-99.9,65,40,31,30.00,29.87,5,-160,15,0.00
2013-11-19,70.7,55.0,62.2,50.0,23.3,-99.9,65,44,44,29.87,29.74,10,-164,17,0.00
2013-11-20,71.6,54.1,62.4,51.0,21.2,-99.9,67,44,45,29.75,29.67,12,-184,18,0.00
2013-11-21,67.3,51.9,58.1,56.0,23.9,-99.9,76,53,55,29.76,29.68,5,-178,8,0.00
2013-11-22,61.8,45.6,51.7,47.0,15.7,-99.9,81,50,43,29.89,29.73,10,-186,15,0.11
2013-11-23,67.5,47.7,51.3,43.0,15.7,-99.9,70,44,38,30.00,29.87,4,-178,8,0.00
2013-11-24,70.5,47.8,49.8,44.0,14.0,-99.9,71,43,31,30.09,29.99,4,-189,5,0.00
2013-11-25,79.6,51.7,47.3,45.0,16.1,-99.9,72,39,20,30.12,30.02,4,-166,9,0.00
2013-11-26,72.2,50.3,47.4,44.0,15.9,-99.9,66,40,27,30.15,30.01,5,-166,9,0.00
2013-11-27,73.1,50.6,48.7,43.0,14.0,-99.9,61,36,24,30.01,29.82,3,-168,7,0.00
2013-11-28,72.5,49.1,49.5,43.0,11.7,-99.9,59,35,25,29.97,29.84,3,-178,6,0.00
2013-11-29,70.7,50.8,52.0,51.0,17.4,-99.9,72,43,28,30.06,29.96,6,-176,6,0.00
2013-11-30,80.7,53.9,52.7,46.0,15.3,-99.9,74,35,21,30.08,29.95,2,-177,5,0.00
2013-12-1,83.9,54.8,54.4,40.0,8.0,-99.9,47,24,13,30.13,30.00,4,-177,4,0.00
2013-12-2,75.9,50.3,51.7,41.0,6.2,-99.9,55,27,16,30.02,29.71,2,-187,4,0.00
2013-12-3,74.9,50.5,48.5,47.0,14.2,-99.9,61,38,28,29.70,29.49,11,-190,17,0.00
2013-12-4,66.2,46.3,46.4,47.0,2.0,-99.9,60,26,21,29.86,29.50,6,-186,13,0.00
2013-12-5,58.9,40.6,40.4,31.0,0.7,-99.9,65,31,23,30.01,29.85,4,-187,7,0.00
2013-12-6,58.5,39.4,35.9,31.0,3.8,-99.9,77,39,32,30.10,29.98,4,-199,7,0.00
2013-12-7,60.6,43.8,38.3,40.0,11.8,-99.9,78,43,38,29.98,29.75,8,-167,12,0.00
2013-12-8,61.0,43.3,46.3,34.0,1.2,-99.9,52,27,22,30.13,29.89,4,-186,11,0.00
2013-12-9,56.3,38.7,35.2,14.0,-16.4,-99.9,32,14,9,30.34,30.13,6,-186,15,0.00
2013-12-10,61.9,37.9,34.3,28.0,-14.0,-99.9,47,17,7,30.31,30.07,4,-193,5,0.00
2013-12-11,67.2,44.4,36.0,33.0,-4.4,-99.9,45,20,12,30.15,30.07,5,-176,6,0.00
2013-12-12,73.7,45.7,47.0,43.0,5.5,-99.9,60,32,26,30.13,29.97,4,-197,8,0.00
2013-12-13,71.5,45.7,44.1,40.0,9.7,-99.9,64,38,26,30.14,29.98,4,-187,10,0.00
2013-12-14,75.7,50.8,47.2,30.0,1.2,-99.9,49,20,12,30.27,30.12,6,-176,11,0.00
2013-12-15,76.6,50.3,47.9,35.0,3.9,-99.9,44,24,13,30.25,30.07,5,-180,6,0.00
2013-12-16,77.4,51.1,47.7,40.0,6.2,-99.9,48,25,15,30.11,30.01,2,-184,5,0.00
2013-12-17,79.7,52.8,49.2,39.0,7.4,-99.9,51,25,15,30.08,29.91,3,-178,6,0.00
2013-12-18,76.0,51.5,52.8,43.0,7.9,-99.9,56,27,20,29.91,29.63,3,-189,13,0.00
2013-12-19,66.6,47.7,52.2,44.0,14.0,-99.9,62,42,40,29.63,29.53,9,-187,17,0.00
2013-12-20,69.0,49.2,51.5,40.0,12.1,-99.9,62,36,29,29.77,29.61,5,-180,11,0.00
2013-12-21,70.3,49.4,50.3,41.0,14.4,-99.9,65,39,29,29.94,29.71,6,-176,11,0.00
2013-12-22,68.2,46.1,44.7,44.0,13.2,-99.9,72,44,36,30.19,29.94,5,-187,8,0.00
2013-12-23,78.2,48.4,47.2,41.0,7.2,-99.9,65,32,19,30.29,30.15,2,-202,5,0.00
2013-12-24,81.9,54.8,48.5,42.0,10.5,-99.9,55,26,17,30.15,30.01,3,-178,6,0.00
2013-12-25,79.3,56.0,52.8,35.0,1.2,-99.9,41,16,9,30.19,30.07,6,-180,9,0.00
2013-12-26,80.7,51.9,52.0,28.0,-7.3,-99.9,27,13,5,30.15,30.03,3,-191,6,0.00
2013-12-27,76.2,50.3,47.5,28.0,-4.1,-99.9,30,16,8,30.11,29.97,5,-189,8,0.00
2013-12-28,73.1,47.8,48.6,32.0,-2.6,-99.9,38,19,12,29.98,29.80,3,-197,5,0.00
2013-12-29,72.9,51.2,47.9,24.0,-9.4,-99.9,36,12,8,30.07,29.88,10,-190,15,0.00
2013-12-30,74.5,47.6,41.2,27.0,-7.4,-99.9,36,15,8,30.17,30.05,3,-180,5,0.00
2013-12-31,75.1,48.5,44.7,28.0,-5.7,-99.9,35,16,7,30.11,29.97,2,-177,5,0.00
2014-1-1,76.8,49.8,46.6,31.0,-1.5,-99.9,38,18,10,30.07,29.96,5,-176,5,0.00
2014-1-2,77.5,51.2,50.7,36.0,2.7,-99.9,40,22,14,30.05,29.92,5,-191,7,0.00